Theta_e
317 317 317 316 316 315 315 316 317 316 315 314 314 316 316 317 317 318 319 320 321 320 319 318 318 315 317 313 310 309 308 309 306 302 302 301 302 301 300 299 298 298 297
316 316 316 316 315 315 315 315 315 314 314 315 316 316 317 318 317 317 319 321 321 320 319 319 317 315 313 311 309 308 308 306 303 301 300 300 299 299 298 297 296 295 296
316 316 315 315 315 315 315 315 315 315 316 316 317 317 317 317 318 318 320 320 319 320 319 315 315 314 310 308 308 306 305 303 301 300 297 297 297 296 296 295 294 294 293
316 315 315 315 316 316 316 316 316 316 316 317 317 318 318 318 319 319 318 319 319 317 314 314 313 310 308 308 306 304 302 300 298 297 296 295 295 295 292 292 291 289 287
316 316 316 316 315 316 317 317 317 317 317 318 318 319 320 320 319 320 319 318 317 316 313 313 309 308 307 307 305 302 300 298 295 294 293 291 292 291 290 288 286 285 285
318 317 317 316 317 316 316 317 317 318 318 319 319 319 320 319 320 321 320 317 316 313 310 307 306 305 304 303 302 300 298 296 293 292 291 291 291 287 285 285 284 284 285
320 320 319 318 318 318 319 318 318 319 320 321 321 321 321 320 321 321 317 315 313 308 307 304 302 301 301 299 297 296 294 292 292 291 288 287 285 284 283 283 284 284 284
322 322 321 321 320 321 321 321 321 321 321 321 321 321 320 319 318 314 311 310 307 305 304 302 301 298 297 296 294 291 289 288 286 284 284 283 283 282 282 281 281 282 282
321 322 322 322 322 322 322 321 321 321 320 318 315 314 313 311 310 307 307 304 302 299 298 298 298 295 292 291 290 288 286 284 282 281 281 280 279 278 278 280 281 281 281
320 320 321 321 320 320 320 318 315 313 310 307 306 306 306 304 303 302 304 302 297 294 292 291 291 291 290 290 287 285 283 283 281 280 279 278 278 278 277 278 278 279 279
317 318 318 319 318 318 314 310 307 304 301 299 298 296 297 298 299 300 301 299 294 289 288 286 287 287 286 283 282 282 282 280 279 278 278 277 277 277 277 276 277 277 278
316 314 312 312 310 308 306 300 298 297 294 291 291 289 290 291 293 295 297 296 292 291 286 283 281 281 282 280 280 280 279 278 278 277 276 276 276 276 275 275 275 275 275
306 302 302 300 299 299 298 294 293 293 291 289 287 285 284 285 287 290 291 290 288 286 282 281 281 281 280 279 279 278 277 277 276 276 276 276 275 274 274 274 274 273 274
298 296 296 295 294 294 294 294 292 291 290 288 286 284 282 283 283 284 284 283 283 281 279 280 279 279 278 277 277 276 276 275 274 274 274 273 273 272 272 272 272 273 273
293 292 291 290 290 289 289 290 290 290 291 290 287 285 283 281 280 281 281 280 279 279 279 278 278 278 277 277 276 275 274 273 273 273 272 272 271 271 271 271 271 272 272
292 291 290 289 288 287 285 284 285 287 289 289 286 285 281 280 280 280 280 279 278 278 278 277 276 276 276 276 275 274 273 272 272 271 270 270 270 270 270 270 270 271 271
288 287 286 286 285 284 283 283 282 281 281 282 282 281 280 279 279 279 278 278 277 277 278 276 276 275 274 274 273 272 272 271 269 269 269 269 269 269 268 269 270 270 271
284 285 284 284 283 283 283 283 282 282 282 281 280 279 279 279 279 279 278 278 277 276 276 275 274 273 273 272 272 271 270 269 268 268 268 268 268 267 268 268 269 269 270
284 283 283 283 283 283 283 283 282 282 281 279 278 277 277 277 277 276 276 276 276 275 275 274 273 272 271 270 269 268 267 267 266 266 266 266 266 267 267 267 268 268 268
281 281 281 281 280 280 280 281 280 280 280 278 277 276 276 276 275 274 273 274 273 273 272 272 270 269 268 268 267 267 267 266 266 266 266 265 266 266 266 267 267 268 268
278 278 278 278 277 277 277 277 277 277 276 275 274 273 273 274 273 272 271 270 270 270 269 268 268 267 266 266 265 265 264 264 264 264 264 264 265 265 265 266 266 267 267
277 276 276 275 276 276 276 275 275 275 274 273 272 270 270 271 270 269 268 267 267 266 265 265 265 264 264 263 263 262 262 262 262 263 263 263 264 264 264 265 266 266 267
275 275 274 274 273 273 273 272 272 271 271 270 270 269 268 268 267 266 265 264 264 263 263 262 262 261 261 260 260 260 260 261 261 261 262 262 262 263 264 264 265 266 266
273 272 272 271 270 270 270 270 269 268 268 268 267 267 266 265 264 264 264 263 262 262 262 261 261 260 260 259 259 259 259 259 259 260 260 260 261 262 263 264 264 265 266
269 269 268 268 268 267 267 266 266 266 265 265 265 264 263 263 263 262 262 262 261 261 260 260 260 259 259 259 259 259 258 258 258 258 258 259 260 261 262 263 263 264 265
267 266 266 266 265 265 265 264 264 263 263 262 262 262 262 262 261 260 260 260 259 259 259 258 258 259 259 258 258 258 258 258 258 258 259 258 260 261 262 263 263 264 265
Wind_Speed
36 36 35 37 37 37 40 47 52 48 48 47 45 41 38 38 36 34 31 30 31 31 34 35 31 29 32 28 28 29 27 23 14 10 14 17 15 13 13 14 14 15 13
35 34 37 36 37 40 42 40 35 36 42 44 33 34 34 32 34 36 33 31 34 30 32 28 30 27 27 28 28 30 26 23 15 9 12 14 12 13 14 14 10 11 11
33 34 34 35 38 42 42 41 38 41 38 33 33 34 34 36 34 34 33 34 30 30 32 29 28 28 27 28 28 25 22 17 14 11 9 12 11 12 9 9 9 10 12
33 35 35 39 44 42 39 37 37 39 36 34 33 31 33 32 31 29 31 31 31 29 27 25 25 27 28 26 24 21 18 17 14 11 8 8 8 7 7 9 11 10 15
33 34 41 38 35 35 34 34 34 35 35 33 30 28 29 28 31 32 31 33 32 30 25 20 21 23 23 21 23 21 20 18 14 10 6 5 6 7 8 7 11 13 17
32 36 31 31 32 33 34 34 33 33 31 29 33 33 30 33 37 35 36 33 32 26 22 21 20 18 19 20 20 20 19 17 13 8 5 6 7 7 7 9 11 11 7
32 30 29 29 30 30 29 29 31 30 27 29 29 29 33 35 35 36 33 29 25 24 24 24 22 21 22 22 20 17 13 9 6 6 6 6 5 5 7 11 11 12 14
27 27 27 28 28 24 24 26 25 24 26 28 30 31 33 32 30 24 26 22 20 21 23 24 25 26 24 22 19 14 9 4 4 5 5 3 4 6 8 11 13 15 15
26 26 25 26 23 21 21 22 24 24 23 23 22 23 22 17 17 25 24 23 24 22 22 24 27 26 22 18 15 11 7 5 6 5 4 4 6 8 10 9 11 12 12
20 18 18 18 20 19 18 20 19 18 17 16 15 13 15 20 22 23 24 26 26 25 22 22 20 19 16 11 10 9 9 8 6 2 1 3 5 6 6 6 9 11 11
19 19 19 20 21 19 19 17 18 18 20 21 22 21 21 22 20 17 18 24 27 26 24 19 15 11 8 7 8 7 7 7 3 1 1 3 4 4 5 6 8 10 12
25 23 21 20 20 20 22 20 20 25 27 25 27 25 22 20 17 17 17 20 23 24 20 15 12 13 13 12 9 8 6 3 1 1 2 3 4 6 8 9 11 13 15
28 25 23 21 22 21 24 25 26 25 25 20 19 21 22 22 23 21 20 19 16 18 17 15 16 17 14 10 7 4 3 2 1 2 3 4 6 9 11 12 13 15 17
28 28 27 27 28 26 24 23 23 21 20 19 18 17 18 20 20 19 19 18 15 17 18 14 12 10 8 7 5 3 3 2 2 4 5 7 9 10 11 11 15 16 19
26 25 26 27 28 29 26 19 20 15 13 15 15 17 17 15 13 14 14 14 13 12 12 10 8 7 5 3 2 2 3 4 5 6 7 10 11 11 12 13 14 16 18
25 22 20 23 24 25 28 32 26 18 15 17 20 20 21 22 19 16 14 13 12 11 9 8 6 5 3 1 1 2 4 5 5 7 9 11 12 12 14 14 14 15 18
23 22 21 22 23 24 23 25 29 33 33 29 25 23 21 20 18 16 16 15 11 7 7 5 4 3 2 2 2 3 5 6 8 10 11 12 12 13 14 15 15 16 18
32 34 28 23 25 25 24 22 21 19 21 22 22 23 20 18 16 14 10 7 8 9 7 4 4 3 2 3 4 5 7 9 11 12 12 13 13 14 15 16 16 17 19
31 30 33 29 24 22 20 20 19 18 19 19 18 18 16 15 13 11 10 8 6 5 5 3 3 2 2 3 4 6 8 10 12 13 14 14 14 14 15 16 17 18 20
33 32 29 25 24 24 21 20 18 17 16 15 13 10 8 9 10 10 9 8 7 5 5 4 3 3 4 6 8 10 12 14 15 15 15 15 14 14 16 17 17 19 19
27 28 28 28 25 22 21 21 17 16 16 15 14 12 10 10 10 9 8 8 7 6 5 4 5 6 7 9 11 12 14 15 16 16 15 14 14 15 15 17 19 18 19
26 24 24 23 20 20 19 17 16 15 14 14 13 13 12 11 9 8 8 7 6 5 5 5 6 8 9 10 12 14 15 16 16 15 14 14 14 15 17 18 18 18 19
20 21 20 19 19 19 18 17 16 15 14 12 10 9 10 9 9 7 6 5 4 5 7 8 8 10 10 11 13 14 15 15 15 14 14 14 16 17 17 19 18 19 19
19 19 19 18 17 17 16 16 15 14 12 11 9 8 8 7 6 5 5 5 6 8 11 13 14 14 15 15 14 13 13 13 13 13 14 16 18 17 17 18 18 19 21
18 17 17 17 16 15 15 14 12 10 9 7 6 6 5 5 5 5 7 10 12 13 14 15 14 14 15 19 19 17 15 14 12 16 17 17 18 19 19 19 19 20 21
18 17 16 15 15 13 11 10 9 8 8 8 7 6 5 5 6 8 10 11 12 13 13 11 12 16 20 19 16 17 19 18 18 18 18 15 16 16 16 18 19 20 21
Wind_Direction
206 207 206 208 209 212 217 225 228 229 231 234 238 241 241 242 243 244 251 261 258 251 259 251 266 254 260 251 240 235 223 222 216 196 202 204 234 255 269 273 273 273 272
207 207 208 208 209 213 219 223 224 226 232 234 232 229 232 237 240 249 253 248 252 263 251 251 257 254 252 239 234 224 222 216 200 188 206 214 224 245 263 270 277 280 276
203 204 206 206 209 215 217 218 219 226 230 228 230 229 236 237 246 250 246 251 250 240 247 249 253 251 231 225 224 214 207 206 200 192 187 212 231 254 257 277 280 285 286
205 204 207 211 215 217 219 218 218 221 224 224 229 231 240 245 239 238 247 239 232 235 241 251 248 239 226 221 210 202 197 190 185 191 196 217 234 250 271 280 281 285 290
202 206 212 215 218 220 221 221 222 223 226 225 227 234 239 241 243 253 248 241 236 238 239 244 237 231 228 217 201 193 192 186 181 183 191 215 243 255 271 281 287 297 297
200 212 215 211 213 216 219 221 223 226 229 227 226 231 235 243 253 255 248 241 235 231 223 212 208 200 193 192 194 192 189 183 179 181 196 232 252 258 276 290 295 302 312
203 212 212 210 211 214 218 223 225 227 228 229 231 228 231 237 252 253 237 229 223 215 203 189 176 177 180 176 172 176 174 176 190 220 222 226 246 260 283 288 285 285 282
206 206 208 207 212 212 212 219 223 223 224 224 229 229 228 233 235 225 215 213 200 189 186 182 179 170 172 171 164 159 157 172 223 216 205 208 255 281 282 282 288 291 294
205 205 201 202 206 204 199 203 212 215 213 213 215 214 216 211 205 190 192 176 161 160 170 173 173 165 158 156 156 153 156 174 181 188 201 247 272 280 277 293 293 303 306
200 196 185 182 183 185 195 200 196 195 181 177 165 171 174 159 170 173 175 163 151 149 150 152 155 155 155 158 157 169 166 169 173 184 307 307 299 283 288 288 294 291 302
154 158 164 171 171 177 174 178 174 158 147 135 128 126 133 144 154 166 173 164 156 145 143 138 137 140 139 149 163 171 163 147 164 179 294 313 289 304 300 297 287 283 286
146 144 145 151 153 155 156 153 148 143 131 121 118 109 110 118 133 148 158 158 151 145 140 136 131 126 134 129 114 118 115 116 110 14 309 299 307 307 305 301 291 288 280
126 118 120 124 129 136 138 131 127 131 123 117 110 105 101 110 109 117 124 128 133 130 132 132 131 132 124 103 103 102 85 76 26 331 319 315 313 307 308 303 300 297 292
116 115 118 116 112 117 120 124 123 124 122 123 118 116 112 110 113 118 119 120 122 121 120 122 127 120 111 106 94 79 68 38 8 338 330 320 313 312 306 304 303 304 298
107 107 105 108 105 99 95 103 114 119 135 134 130 127 122 110 112 121 124 121 119 119 122 119 112 106 101 95 88 74 41 13 355 336 322 316 309 304 300 303 299 299 295
107 104 109 107 103 98 94 83 80 104 125 137 133 129 109 111 109 105 105 108 114 118 104 104 98 93 89 73 355 349 345 338 330 322 312 305 301 300 302 302 299 296 296
89 92 93 97 98 99 97 96 96 82 87 93 97 101 104 105 102 105 102 103 96 74 80 92 100 93 72 46 7 345 327 323 319 313 306 302 298 298 300 300 301 299 296
86 89 81 76 87 93 97 99 101 100 97 92 91 97 98 97 93 95 99 75 61 50 62 68 78 83 46 358 333 324 318 315 313 310 306 301 298 299 299 299 301 300 299
82 85 90 89 83 85 87 87 90 95 99 101 97 90 88 88 82 70 61 60 55 64 61 56 65 48 17 343 324 320 315 312 313 311 305 299 298 296 295 295 296 296 297
79 86 85 82 80 81 82 84 87 93 97 94 82 74 65 66 62 60 62 69 69 66 55 61 37 11 350 331 322 317 314 313 311 308 302 297 294 293 295 297 296 296 297
76 76 83 83 79 80 79 78 83 89 93 89 80 72 81 79 76 75 70 63 58 51 40 18 354 342 329 320 314 309 306 305 304 301 298 294 292 292 292 294 295 295 299
82 81 80 81 84 83 83 86 87 88 89 89 83 72 73 74 73 70 63 52 41 28 6 350 336 327 321 316 313 309 305 302 302 301 297 294 293 294 297 296 295 298 301
81 83 81 81 83 85 83 82 82 84 84 81 79 73 65 66 65 61 50 34 24 4 343 336 331 324 320 317 312 307 302 299 298 297 294 293 295 296 298 296 297 300 301
79 80 82 81 82 82 84 84 81 78 77 72 69 67 68 67 58 42 25 4 346 334 326 322 320 319 319 319 316 310 303 295 295 289 290 292 293 294 293 295 295 297 300
77 80 82 83 83 82 80 78 76 73 70 68 73 75 69 49 28 8 341 330 327 323 321 319 316 314 315 314 313 311 306 300 289 287 292 290 287 288 290 291 293 298 300
81 81 81 81 80 78 77 77 75 73 72 68 64 54 30 1 341 331 325 324 322 321 320 316 313 312 311 312 310 305 305 299 295 293 292 286 284 288 290 292 295 297 299